Regional Weather Roundup
Issued by NWS Sterling, VA

Current Version | Previous Version | Text Only | Print | Product List | Glossary On
Versions: 1 2 3 4 5 6 7 8 9 10 11 12 13 14 15 16 17 18 19 20 21 22 23 24 25 26 27 28 29 30 31 32 33 34 35 36 37 38 39 40 41 42 43 44 45 46 47 48 49 50
000
ASUS41 KLWX 202310
RWRLWX

REGIONAL WEATHER ROUNDUP
NATIONAL WEATHER SERVICE BALTIMORE MD/WASHINGTON DC
700 PM EDT WED AUG 20 2014

Note: "FAIR" indicates few or no clouds below 12,000 feet
with no significant weather and/or obstructions to visibility.
 TC=TEMPERATURE CELSIUS

 * =Non NWS site. Station does not report precipitation (e.g. rain,
    snow, etc.), thunder, or fog.

DCZ001-MDZ009-015-VAZ040>042-051-053>054-210000-
WASHINGTON METRO
  /KDAA//-FT BELVOIR

CITY           SKY/WX    TMP DP  RH WIND       PRES   REMARKS
WASHINGTON NAT CLOUDY    76  67  73 S12       29.97F
DULLES         CLOUDY    69  65  86 SE5       29.97S
ANDREWS AFB    DRIZZLE   71  68  89 SE8       29.96F
QUANTICO       TSTM      72  67  84 SE3       29.99F
COLLEGE PARK*  CLOUDY    72  70  94 CALM      29.96F
LEESBURG*      CLOUDY    73  72  94 S5        29.99R
MANASSAS*      PTSUNNY   70  68  94 SE5       29.97F
GAITHERSBURG*  MOCLDY    72  66  83 SE5       30.01S

$$

MDZ006>007-011-014-210000-
BALTIMORE METRO

CITY           SKY/WX    TMP DP  RH WIND       PRES   REMARKS
BWI AIRPORT    CLOUDY    75  67  76 CALM      29.96F
MD SCIENCE CTR   N/A     79  65  62 MISG      29.96F
MARTIN STATE   MOCLDY    79  70  73 SE7       29.98S
ANNAPOLIS      CLOUDY    78  64  61 S10G21    29.95F
FORT MEADE*    CLOUDY    70  68  94 CALM      29.99F

$$

MDZ012-015-019>023-210000-
MARYLAND EASTERN SHORE

CITY           SKY/WX    TMP DP  RH WIND       PRES   REMARKS
OCEAN CITY     CLEAR     75  65  70 E3        30.01S
SALISBURY      CLEAR     79  59  50 SE5       30.01R
BAY BRIDGE AP*   N/A     79  63  57 S7        29.97F
CAMBRIDGE*     PTCLDY    79  63  57 S5        29.98F
EASTON*        MOCLDY    81  70  69 W3        30.02F

$$

MDZ017>025-210000-
SOUTHERN MARYLAND

CITY           SKY/WX    TMP DP  RH WIND       PRES   REMARKS
PATUXENT RIVER MOCLDY    77  61  57 SE6       29.99
ST INIGOES     PTCLDY    77  59  53 E5        29.98R
LEONARDTOWN*   CLEAR     77  57  50 E5        30.01S

$$

MDZ003>005-210000-
NORTH CENTRAL MARYLAND

CITY           SKY/WX    TMP DP  RH WIND       PRES   REMARKS
FREDERICK*     SUNNY     79  72  78 CALM      29.99R
HAGERSTOWN APT PTSUNNY   75  67  76 SE5       29.97S
WESTMINSTER*   MOCLDY    77  66  69 SE5       29.99S

$$

MDZ501>502-210000-
WESTERN MARYLAND

CITY           SKY/WX    TMP DP  RH WIND       PRES   REMARKS
OAKLAND*       SUNNY     68  64  88 SW5       30.06F
CUMBERLAND*    SUNNY     88  61  40 CALM      29.97F

$$

VAZ025>031-210000-
SHENANDOAH VALLEY

CITY           SKY/WX    TMP DP  RH WIND       PRES   REMARKS
WINCHESTER*    MOSUNNY   77  70  78 CALM      29.97R
STAUNTON*      MOSUNNY   85  65  52 SW12      29.97R

$$

WVZ021-048>050-054>055-210000-
EASTERN WEST VIRGINIA PANHANDLE

CITY           SKY/WX    TMP DP  RH WIND       PRES   REMARKS
MARTINSBURG    PTSUNNY   78  67  68 VRB7      29.96F
PETERSBURG*    NOT AVBL

$$

VAZ036>039-050-210000-
CENTRAL FOOTHILLS

CITY           SKY/WX    TMP DP  RH WIND       PRES   REMARKS
CHARLOTTESVILL MOSUNNY   84  69  60 S9        29.94R
ORANGE*        TSTM      72  66  83 S9G37     29.99R VSB 1/2

$$

VAZ055>057-210000-
NORTH AND CENTRAL PIEDMONT

CITY           SKY/WX    TMP DP  RH WIND       PRES   REMARKS
FREDERICKSBRG* HVY RAIN  73  71  96 NE13G23   29.99R
STAFFORD*      TSTM      70  70 100 SE6       30.02R

$$

NCZ024-NYZ072-PAZ021-071-VAZ022-071-210000-
OTHER REGIONAL OBSERVATIONS

CITY           SKY/WX    TMP DP  RH WIND       PRES   REMARKS
NEW YORK CITY  CLEAR     76  53  44 S6        30.02S
PHILADELPHIA   CLOUDY    81  66  60 S13       29.99R
PITTSBURGH     CLOUDY    78  69  73 S3        29.95F
ROANOKE        MOSUNNY   86  65  49 CALM      29.98F
RICHMOND       PTCLDY    84  68  58 SE10      29.95S
RALEIGH        MOSUNNY   79  70  74 VRB3      29.97R

$$

ANZ530>537-210000-
MARINE OBSERVATIONS

STATION/POSITION TIME  TEMP    WIND        PRES
                       AIR SEA DIR/SP/G
                 (UTC) (F)     (DEG/KT/KT) (MB)
THOMAS PT LIGHT  2300   78 79  180/ 18/ 20 1014.6F
BALT KEY BRIDGE  2300   80     150/ 10/ 11 1014.1F
COVE POINT       2300   78     190/ 12/ 13 1015.4F
LEWISETTA        2300   79 81  150/  7/  9 1014.9F
SOLOMONS ISLAND  2300      81                N/A
PINEY POINT      2300          140/ 12/ 13   N/A

$$




USA.gov is the U.S. government's official web portal to all federal, state and local government web resources and services.